Time,TemperatureF,DewpointF,PressureIn,WindDirection,WindDirectionDegrees,WindSpeedMPH,WindSpeedGustMPH,Humidity,HourlyPrecipIn,Conditions,Clouds,dailyrainin,SoftwareType,DateUTC
2013-05-05 00:04:00,68.8,10.1,29.41,WSW,248,0.4,0.4,1,0.00,,,0.00,WUHU216HW,2013-05-05 04:04:00,
2013-05-05 00:34:00,68.0,9.5,29.40,WSW,248,0.0,0.0,1,0.00,,,0.00,WUHU216HW,2013-05-05 04:34:00,
2013-05-05 01:04:00,67.7,9.3,29.39,WSW,248,0.0,0.0,1,0.00,,,0.00,WUHU216HW,2013-05-05 05:04:00,
2013-05-05 01:34:00,69.1,10.3,29.39,NW,315,0.7,0.7,1,0.00,,,0.00,WUHU216HW,2013-05-05 05:34:00,
2013-05-05 02:04:00,69.5,10.5,29.39,WNW,293,0.2,1.8,1,0.00,,,0.00,WUHU216HW,2013-05-05 06:04:00,
2013-05-05 02:09:00,69.5,10.5,29.39,WNW,293,0.2,0.2,1,0.00,,,0.00,WUHU216HW,2013-05-05 06:09:00,
2013-05-05 02:35:00,69.3,10.5,29.38,North,0,0.0,0.0,1,0.00,,,0.00,WUHU216HW,2013-05-05 06:35:00,
2013-05-05 03:05:00,68.8,10.1,29.38,North,0,0.0,0.0,1,0.00,,,0.00,WUHU216HW,2013-05-05 07:05:00,
2013-05-05 03:35:00,69.3,10.5,29.38,North,0,0.0,0.0,1,0.00,,,0.00,WUHU216HW,2013-05-05 07:35:00,
2013-05-05 04:05:00,68.8,10.1,29.38,North,0,0.0,0.0,1,0.00,,,0.00,WUHU216HW,2013-05-05 08:05:00,
2013-05-05 04:35:00,67.7,9.3,29.38,North,0,0.0,0.0,1,0.00,,,0.00,WUHU216HW,2013-05-05 08:35:00,
2013-05-05 05:05:00,67.3,9.0,29.38,North,0,0.0,0.0,1,0.00,,,0.00,WUHU216HW,2013-05-05 09:05:00,
2013-05-05 05:35:00,67.0,8.6,29.40,North,0,0.0,0.0,1,0.00,,,0.00,WUHU216HW,2013-05-05 09:35:00,
2013-05-05 06:05:00,65.9,7.8,29.41,North,0,0.0,0.0,1,0.00,,,0.00,WUHU216HW,2013-05-05 10:05:00,
2013-05-05 06:35:00,63.7,6.1,29.43,North,0,0.0,0.0,1,0.00,,,0.00,WUHU216HW,2013-05-05 10:35:00,
2013-05-05 07:05:00,62.6,5.4,29.46,North,0,0.0,0.0,1,0.00,,,0.00,WUHU216HW,2013-05-05 11:05:00,
2013-05-05 07:35:00,60.5,3.7,29.48,North,0,0.0,0.0,1,0.00,,,0.00,WUHU216HW,2013-05-05 11:35:00,
2013-05-05 08:05:00,60.1,3.4,29.49,North,0,0.0,0.0,1,0.00,,,0.00,WUHU216HW,2013-05-05 12:05:00,
2013-05-05 08:35:00,60.8,4.0,29.49,North,0,0.0,0.0,1,0.00,,,0.00,WUHU216HW,2013-05-05 12:35:00,
2013-05-05 09:05:00,63.5,6.0,29.51,North,0,0.0,0.0,1,0.00,,,0.00,WUHU216HW,2013-05-05 13:05:00,
2013-05-05 09:35:00,65.7,7.7,29.51,West,270,1.8,1.8,7,0.00,,,0.00,WUHU216HW,2013-05-05 13:35:00,
2013-05-05 10:05:00,67.7,32.2,29.51,South,180,1.8,1.8,27,0.00,,,0.00,WUHU216HW,2013-05-05 14:05:00,
2013-05-05 10:35:00,68.6,35.9,29.51,West,270,4.0,4.0,30,0.00,,,0.00,WUHU216HW,2013-05-05 14:35:00,
2013-05-05 11:05:00,70.9,38.8,29.51,West,270,3.1,3.1,31,0.00,,,0.00,WUHU216HW,2013-05-05 15:05:00,
2013-05-05 11:35:00,72.5,41.0,29.51,SW,225,1.6,1.6,32,0.00,,,0.00,WUHU216HW,2013-05-05 15:35:00,
2013-05-05 12:05:00,72.7,41.9,29.51,SW,225,4.7,4.7,33,0.00,,,0.00,WUHU216HW,2013-05-05 16:05:00,
2013-05-05 12:35:00,74.7,44.3,29.51,North,0,0.4,0.4,34,0.00,,,0.00,WUHU216HW,2013-05-05 16:35:00,
2013-05-05 13:05:00,76.0,46.2,29.50,ESE,113,1.8,1.8,35,0.00,,,0.00,WUHU216HW,2013-05-05 17:05:00,
2013-05-05 13:35:00,77.2,46.5,29.50,NNW,338,0.4,0.4,34,0.00,,,0.00,WUHU216HW,2013-05-05 17:35:00,
2013-05-05 14:05:00,78.1,49.6,29.49,WSW,248,1.8,1.8,37,0.00,,,0.00,WUHU216HW,2013-05-05 18:05:00,
2013-05-05 14:35:00,79.6,47.8,29.49,ESE,113,4.0,4.0,33,0.00,,,0.00,WUHU216HW,2013-05-05 18:35:00,
2013-05-05 15:05:00,81.0,50.6,29.49,SSW,203,1.8,1.8,35,0.00,,,0.00,WUHU216HW,2013-05-05 19:05:00,
2013-05-05 15:35:00,80.8,49.7,29.49,WNW,293,1.1,1.1,34,0.00,,,0.00,WUHU216HW,2013-05-05 19:35:00,
2013-05-05 16:05:00,82.1,49.1,29.48,NW,315,2.0,2.0,32,0.00,,,0.00,WUHU216HW,2013-05-05 20:05:00,
2013-05-05 16:35:00,83.7,49.8,29.48,West,270,4.7,4.7,31,0.00,,,0.00,WUHU216HW,2013-05-05 20:35:00,
2013-05-05 17:05:00,84.6,50.6,29.48,WNW,293,0.2,0.2,31,0.00,,,0.00,WUHU216HW,2013-05-05 21:05:00,
2013-05-05 17:35:00,85.1,48.2,29.49,WSW,248,3.4,3.4,28,0.00,,,0.00,WUHU216HW,2013-05-05 21:35:00,
2013-05-05 18:05:00,82.4,50.2,29.49,NW,315,0.4,0.4,33,0.00,,,0.00,WUHU216HW,2013-05-05 22:05:00,
2013-05-05 18:35:00,78.5,50.7,29.49,West,270,0.0,0.0,38,0.00,,,0.00,WUHU216HW,2013-05-05 22:35:00,
2013-05-05 19:05:00,76.3,49.5,29.49,WSW,248,1.1,1.1,39,0.00,,,0.00,WUHU216HW,2013-05-05 23:05:00,
2013-05-05 19:35:00,74.5,51.1,29.50,West,270,1.1,1.1,44,0.00,,,0.00,WUHU216HW,2013-05-05 23:35:00,
2013-05-05 20:05:00,72.4,49.2,29.51,WSW,248,1.1,1.1,44,0.00,,,0.00,WUHU216HW,2013-05-06 00:05:00,
2013-05-05 20:35:00,70.6,48.1,29.51,West,270,0.4,0.4,45,0.00,,,0.00,WUHU216HW,2013-05-06 00:35:00,
2013-05-05 21:05:00,69.1,46.8,29.52,West,270,0.0,0.0,45,0.00,,,0.00,WUHU216HW,2013-05-06 01:05:00,
2013-05-05 21:35:00,67.7,41.8,29.53,West,270,0.0,0.0,39,0.00,,,0.00,WUHU216HW,2013-05-06 01:35:00,
2013-05-05 22:05:00,65.2,7.2,29.54,SSW,203,0.0,0.0,7,0.00,,,0.00,WUHU216HW,2013-05-06 02:05:00,
2013-05-05 22:35:00,63.4,6.0,29.55,SSW,203,0.0,0.0,1,0.00,,,0.00,WUHU216HW,2013-05-06 02:35:00,
2013-05-05 23:05:00,62.5,5.2,29.55,WSW,248,0.0,0.0,1,0.00,,,0.00,WUHU216HW,2013-05-06 03:05:00,
2013-05-05 23:35:00,60.5,3.7,29.56,West,270,0.0,0.0,1,0.00,,,0.00,WUHU216HW,2013-05-06 03:35:00,